�������l�o���
Date,Time,MP-1(��Sv/h),MP-2(��Sv/h),MP-3(��Sv/h),MP-4(��Sv/h),MP-5(��Sv/h),MP-6(��Sv/h),MP-7(��Sv/h),MP-8(��Sv/h),����,����(m/s),���J
2018/06/17,00:00,0.836,1.178,0.821,1.496,1.026,0.461,0.806,0.776,�k��,2.3,�L
2018/06/17,00:10,0.835,1.179,0.819,1.496,1.027,0.460,0.807,0.776,�k��,2.3,��
2018/06/17,00:20,0.836,1.179,0.821,1.500,1.028,0.461,0.806,0.776,���k��,2.2,��
2018/06/17,00:30,0.837,1.180,0.819,1.496,1.027,0.461,0.807,0.776,�k��,2.0,��
2018/06/17,00:40,0.837,1.179,0.819,1.498,1.028,0.461,0.806,0.776,�k��,1.5,��
2018/06/17,00:50,0.836,1.178,0.821,1.497,1.026,0.461,0.807,0.776,���k��,1.5,��
2018/06/17,01:00,0.835,1.178,0.820,1.498,1.028,0.462,0.806,0.777,���k��,1.1,��
2018/06/17,01:10,0.837,1.179,0.822,1.498,1.029,0.462,0.806,0.777,-,CALM,��
2018/06/17,01:20,0.834,1.180,0.821,1.497,1.029,0.460,0.808,0.776,��,0.9,��
2018/06/17,01:30,0.837,1.179,0.821,1.497,1.031,0.460,0.807,0.777,���k��,1.1,��
2018/06/17,01:40,0.835,1.179,0.822,1.497,1.030,0.462,0.806,0.776,�k��,0.6,��
2018/06/17,01:50,0.835,1.180,0.821,1.497,1.031,0.461,0.807,0.776,�k��,1.2,��
2018/06/17,02:00,0.836,1.180,0.821,1.500,1.029,0.462,0.808,0.774,�k��,0.9,��
2018/06/17,02:10,0.838,1.182,0.821,1.498,1.030,0.462,0.808,0.777,�k��,1.5,��
2018/06/17,02:20,0.837,1.181,0.820,1.500,1.032,0.461,0.808,0.777,���k��,1.5,��
2018/06/17,02:30,0.838,1.182,0.822,1.500,1.031,0.462,0.808,0.777,���k��,1.5,��
2018/06/17,02:40,0.837,1.182,0.821,1.498,1.029,0.462,0.808,0.776,��,1.5,��
2018/06/17,02:50,0.837,1.182,0.822,1.500,1.032,0.462,0.807,0.775,���k��,2.2,��
2018/06/17,03:00,0.838,1.180,0.824,1.497,1.030,0.460,0.807,0.777,���k��,2.2,��
2018/06/17,03:10,0.838,1.181,0.822,1.498,1.030,0.462,0.807,0.778,���k��,2.3,��
2018/06/17,03:20,0.836,1.182,0.823,1.502,1.031,0.461,0.807,0.775,���k��,2.6,��
2018/06/17,03:30,0.838,1.185,0.823,1.501,1.032,0.461,0.806,0.776,��,1.5,��
2018/06/17,03:40,0.838,1.184,0.822,1.502,1.033,0.463,0.808,0.776,��,1.1,��
2018/06/17,03:50,0.837,1.182,0.824,1.501,1.031,0.462,0.810,0.776,��,1.5,��
2018/06/17,04:00,0.837,1.181,0.822,1.499,1.033,0.461,0.807,0.777,��,1.4,��
2018/06/17,04:10,0.838,1.182,0.822,1.501,1.031,0.461,0.809,0.776,��,1.2,��
2018/06/17,04:20,0.840,1.185,0.822,1.502,1.033,0.461,0.808,0.776,���쐼,1.2,��
2018/06/17,04:30,0.837,1.183,0.821,1.501,1.031,0.462,0.807,0.776,��쐼,0.9,��
2018/06/17,04:40,0.837,1.184,0.821,1.502,1.032,0.461,0.808,0.777,�쐼,1.2,��
2018/06/17,04:50,0.838,1.182,0.823,1.502,1.031,0.461,0.810,0.777,�쐼,1.5,��
2018/06/17,05:00,0.839,1.184,0.825,1.500,1.034,0.463,0.807,0.777,���쐼,1.7,��
2018/06/17,05:10,0.838,1.183,0.823,1.501,1.032,0.462,0.808,0.777,���쐼,2.5,��
2018/06/17,05:20,0.837,1.183,0.823,1.499,1.035,0.463,0.807,0.776,���쐼,2.9,��
2018/06/17,05:30,0.839,1.184,0.822,1.502,1.031,0.461,0.808,0.778,���쐼,3.1,��
2018/06/17,05:40,0.837,1.184,0.822,1.503,1.034,0.462,0.808,0.777,�쐼,3.2,��
2018/06/17,05:50,0.838,1.184,0.822,1.504,1.035,0.464,0.807,0.777,�쐼,3.0,��
2018/06/17,06:00,0.838,1.184,0.825,1.502,1.034,0.462,0.809,0.778,�쐼,2.6,��
2018/06/17,06:10,0.840,1.184,0.824,1.503,1.035,0.462,0.809,0.775,��쐼,2.0,��
2018/06/17,06:20,0.839,1.184,0.824,1.502,1.034,0.461,0.809,0.778,��,2.0,��
2018/06/17,06:30,0.841,1.185,0.824,1.502,1.034,0.463,0.809,0.775,��,2.0,��
2018/06/17,06:40,0.838,1.185,0.825,1.504,1.034,0.461,0.809,0.778,��,2.2,��
2018/06/17,06:50,0.840,1.188,0.824,1.504,1.034,0.463,0.808,0.777,��,0.9,��
2018/06/17,07:00,0.839,1.187,0.824,1.504,1.038,0.462,0.809,0.779,��,1.7,��
2018/06/17,07:10,0.842,1.186,0.825,1.506,1.035,0.461,0.810,0.777,�쓌,1.7,��
2018/06/17,07:20,0.842,1.186,0.826,1.505,1.037,0.459,0.807,0.777,��쓌,1.7,��
2018/06/17,07:30,0.840,1.186,0.823,1.505,1.038,0.461,0.809,0.775,��쓌,1.7,��
2018/06/17,07:40,0.839,1.187,0.827,1.507,1.038,0.461,0.809,0.778,���쓌,2.3,��
2018/06/17,07:50,0.840,1.188,0.827,1.503,1.037,0.460,0.810,0.775,�쓌,2.2,��
2018/06/17,08:00,0.841,1.189,0.828,1.508,1.037,0.462,0.811,0.776,��쓌,1.9,��
2018/06/17,08:10,0.841,1.189,0.829,1.506,1.037,0.462,0.811,0.776,��쓌,2.5,��
2018/06/17,08:20,0.841,1.188,0.826,1.504,1.041,0.463,0.809,0.775,�쓌,2.3,��
2018/06/17,08:30,0.840,1.191,0.827,1.506,1.037,0.462,0.812,0.776,�쓌,2.6,��
2018/06/17,08:40,0.841,1.190,0.825,1.508,1.037,0.462,0.810,0.774,�쓌,3.1,��
2018/06/17,08:50,0.840,1.190,0.827,1.509,1.040,0.462,0.808,0.774,�쓌,3.2,��
2018/06/17,09:00,0.840,1.193,0.825,1.509,1.039,0.463,0.812,0.775,�쓌,3.0,��
2018/06/17,09:10,0.841,1.190,0.827,1.509,1.039,0.464,0.811,0.774,�쓌,3.9,��
2018/06/17,09:20,0.841,1.192,0.827,1.508,1.041,0.463,0.810,0.776,��쓌,3.0,��
2018/06/17,09:30,0.840,1.192,0.826,1.510,1.041,0.462,0.811,0.776,�쓌,3.6,��
2018/06/17,09:40,0.841,1.189,0.826,1.510,1.042,0.463,0.810,0.775,�쓌,3.8,��
2018/06/17,09:50,0.841,1.191,0.826,1.509,1.043,0.464,0.812,0.776,�쓌,3.6,��
2018/06/17,10:00,0.842,1.193,0.829,1.513,1.041,0.463,0.811,0.775,�쓌,3.7,��
2018/06/17,10:10,0.841,1.194,0.827,1.511,1.040,0.464,0.811,0.776,���쓌,2.6,��
2018/06/17,10:20,0.842,1.195,0.827,1.510,1.041,0.464,0.811,0.777,���쓌,3.0,��
2018/06/17,10:30,0.843,1.196,0.826,1.512,1.042,0.464,0.811,0.776,�쓌,4.1,��
2018/06/17,10:40,0.842,1.195,0.828,1.512,1.043,0.464,0.813,0.777,�쓌,3.5,��
2018/06/17,10:50,0.844,1.196,0.828,1.511,1.046,0.465,0.811,0.778,�쓌,3.3,��
2018/06/17,11:00,0.845,1.197,0.829,1.513,1.044,0.465,0.813,0.776,�쓌,3.6,��
2018/06/17,11:10,0.846,1.197,0.830,1.509,1.046,0.465,0.812,0.776,��쓌,4.3,��
2018/06/17,11:20,0.844,1.197,0.828,1.515,1.047,0.465,0.814,0.776,��쓌,4.1,��
2018/06/17,11:30,0.844,1.196,0.829,1.514,1.047,0.466,0.814,0.776,��쓌,4.0,��
2018/06/17,11:40,0.845,1.199,0.831,1.514,1.046,0.465,0.813,0.776,�쓌,4.7,��
2018/06/17,11:50,0.844,1.200,0.829,1.513,1.045,0.465,0.813,0.775,��쓌,4.6,��
2018/06/17,12:00,0.844,1.201,0.831,1.515,1.046,0.465,0.813,0.777,�쓌,4.2,��
2018/06/17,12:10,0.847,1.200,0.830,1.512,1.047,0.465,0.816,0.777,�쓌,4.4,��
2018/06/17,12:20,0.846,1.202,0.830,1.515,1.049,0.467,0.815,0.777,�쓌,3.7,��
2018/06/17,12:30,0.844,1.201,0.831,1.515,1.047,0.466,0.811,0.777,�쓌,3.7,��
2018/06/17,12:40,0.847,1.202,0.828,1.512,1.049,0.466,0.814,0.779,�쓌,4.1,��
2018/06/17,12:50,0.844,1.205,0.830,1.516,1.049,0.465,0.813,0.778,�쓌,3.9,��
2018/06/17,13:00,0.846,1.201,0.832,1.517,1.051,0.464,0.813,0.778,��쓌,3.8,��
2018/06/17,13:10,0.845,1.204,0.832,1.517,1.048,0.466,0.814,0.778,��쓌,4.6,��
2018/06/17,13:20,0.847,1.202,0.831,1.515,1.048,0.466,0.814,0.778,�쓌,4.8,��
2018/06/17,13:30,0.845,1.201,0.831,1.518,1.048,0.466,0.816,0.777,��쓌,5.5,��
2018/06/17,13:40,0.848,1.204,0.833,1.518,1.049,0.465,0.815,0.778,��쓌,5.1,��
2018/06/17,13:50,0.847,1.204,0.831,1.517,1.048,0.467,0.815,0.776,��쓌,5.3,��
2018/06/17,14:00,0.846,1.205,0.832,1.518,1.049,0.467,0.815,0.778,��쓌,5.7,��
2018/06/17,14:10,0.847,1.206,0.831,1.518,1.049,0.466,0.814,0.776,��쓌,6.2,��
2018/06/17,14:20,0.847,1.205,0.831,1.519,1.050,0.466,0.815,0.777,��쓌,6.2,��
2018/06/17,14:30,0.848,1.206,0.832,1.520,1.050,0.467,0.815,0.778,��쓌,6.5,��
2018/06/17,14:40,0.849,1.207,0.832,1.518,1.052,0.467,0.815,0.779,��쓌,5.7,��
2018/06/17,14:50,0.848,1.207,0.833,1.517,1.052,0.468,0.815,0.778,��쓌,6.3,��
2018/06/17,15:00,0.847,1.209,0.833,1.521,1.054,0.468,0.816,0.779,�쓌,6.2,��
2018/06/17,15:10,0.848,1.208,0.831,1.519,1.052,0.468,0.816,0.778,�쓌,6.8,��
2018/06/17,15:20,0.846,1.209,0.833,1.520,1.053,0.467,0.815,0.780,�쓌,6.9,��
2018/06/17,15:30,0.848,1.209,0.832,1.521,1.051,0.468,0.816,0.777,��쓌,6.7,��
2018/06/17,15:40,0.848,1.208,0.833,1.520,1.051,0.467,0.813,0.779,��쓌,6.7,��
2018/06/17,15:50,0.847,1.208,0.833,1.520,1.054,0.467,0.817,0.780,��쓌,6.1,��
2018/06/17,16:00,0.847,1.211,0.834,1.519,1.053,0.468,0.816,0.779,��쓌,7.5,��
2018/06/17,16:10,0.849,1.210,0.832,1.519,1.053,0.469,0.816,0.779,��쓌,8.9,��
2018/06/17,16:20,0.849,1.208,0.833,1.522,1.053,0.470,0.815,0.781,��쓌,8.7,��
2018/06/17,16:30,0.849,1.210,0.835,1.521,1.053,0.467,0.815,0.778,��쓌,8.6,��
2018/06/17,16:40,0.848,1.211,0.836,1.520,1.055,0.467,0.816,0.779,��쓌,9.2,��
2018/06/17,16:50,0.849,1.210,0.834,1.520,1.054,0.467,0.815,0.779,��쓌,9.7,��
2018/06/17,17:00,0.848,1.208,0.836,1.521,1.053,0.467,0.817,0.777,��쓌,8.8,��
2018/06/17,17:10,0.850,1.209,0.832,1.521,1.054,0.468,0.818,0.779,��쓌,8.6,��
2018/06/17,17:20,0.849,1.211,0.835,1.520,1.052,0.467,0.817,0.780,��쓌,10.0,��
2018/06/17,17:30,0.849,1.210,0.833,1.522,1.053,0.469,0.818,0.779,��쓌,9.9,��
2018/06/17,17:40,0.851,1.211,0.835,1.521,1.053,0.469,0.815,0.781,��쓌,9.4,��
2018/06/17,17:50,0.850,1.212,0.835,1.523,1.056,0.469,0.816,0.779,��쓌,10.0,��
2018/06/17,18:00,0.850,1.212,0.836,1.523,1.054,0.468,0.816,0.780,��쓌,7.8,��
2018/06/17,18:10,0.850,1.211,0.833,1.521,1.054,0.469,0.817,0.781,��,6.9,��
2018/06/17,18:20,0.850,1.209,0.835,1.524,1.054,0.469,0.817,0.780,��,6.9,��
2018/06/17,18:30,0.850,1.214,0.836,1.523,1.056,0.470,0.815,0.779,��,7.0,��
2018/06/17,18:40,0.853,1.213,0.837,1.525,1.054,0.472,0.815,0.782,��,6.4,��
2018/06/17,18:50,0.850,1.213,0.839,1.524,1.054,0.471,0.816,0.782,��,5.9,��
2018/06/17,19:00,0.851,1.217,0.840,1.522,1.056,0.470,0.815,0.781,��,7.0,��
2018/06/17,19:10,0.851,1.215,0.837,1.524,1.054,0.469,0.816,0.782,��,6.7,��
2018/06/17,19:20,0.850,1.215,0.840,1.526,1.054,0.470,0.815,0.782,��,7.0,��
2018/06/17,19:30,0.850,1.216,0.839,1.527,1.056,0.470,0.816,0.783,��,7.1,��
2018/06/17,19:40,0.850,1.213,0.838,1.524,1.054,0.470,0.816,0.783,��,7.7,��
2018/06/17,19:50,0.853,1.216,0.839,1.522,1.054,0.470,0.817,0.783,��,6.8,��
2018/06/17,20:00,0.852,1.215,0.837,1.524,1.053,0.469,0.815,0.786,��,7.5,��
2018/06/17,20:10,0.852,1.215,0.840,1.523,1.056,0.469,0.816,0.783,��,7.2,��
2018/06/17,20:20,0.853,1.216,0.836,1.521,1.056,0.469,0.818,0.783,��,7.6,��
2018/06/17,20:30,0.850,1.216,0.837,1.524,1.059,0.469,0.818,0.783,��,7.0,��
2018/06/17,20:40,0.851,1.216,0.837,1.522,1.055,0.471,0.816,0.782,��,7.3,��
2018/06/17,20:50,0.852,1.214,0.838,1.523,1.057,0.470,0.818,0.780,��,7.4,��
2018/06/17,21:00,0.852,1.215,0.837,1.523,1.057,0.470,0.819,0.785,��,8.7,��
2018/06/17,21:10,0.852,1.216,0.838,1.525,1.057,0.470,0.817,0.782,��,8.9,��
2018/06/17,21:20,0.853,1.213,0.837,1.526,1.058,0.468,0.819,0.784,��,9.0,��
2018/06/17,21:30,0.855,1.214,0.840,1.523,1.058,0.470,0.820,0.784,��쐼,8.7,��
2018/06/17,21:40,0.855,1.214,0.837,1.526,1.058,0.469,0.818,0.783,��,9.3,��
2018/06/17,21:50,0.853,1.215,0.836,1.524,1.057,0.472,0.818,0.783,��,7.4,��
2018/06/17,22:00,0.853,1.213,0.836,1.526,1.059,0.470,0.819,0.784,��,6.8,��
2018/06/17,22:10,0.852,1.216,0.837,1.525,1.059,0.472,0.819,0.783,��,6.7,��
2018/06/17,22:20,0.851,1.216,0.838,1.524,1.056,0.472,0.818,0.782,��,7.2,��
2018/06/17,22:30,0.852,1.214,0.837,1.527,1.059,0.472,0.819,0.782,��,7.4,��
2018/06/17,22:40,0.851,1.212,0.839,1.525,1.058,0.472,0.819,0.784,��,6.4,��
2018/06/17,22:50,0.854,1.214,0.838,1.523,1.058,0.471,0.818,0.783,��,6.2,��
2018/06/17,23:00,0.853,1.213,0.835,1.522,1.058,0.471,0.819,0.783,��,7.1,��
2018/06/17,23:10,0.853,1.214,0.838,1.523,1.059,0.470,0.818,0.785,��,7.8,��
2018/06/17,23:20,0.851,1.212,0.838,1.524,1.059,0.472,0.818,0.784,��,7.8,��
2018/06/17,23:30,0.853,1.216,0.838,1.523,1.060,0.472,0.820,0.784,��,7.1,��
2018/06/17,23:40,0.854,1.214,0.836,1.526,1.057,0.470,0.819,0.784,��,7.2,��
2018/06/17,23:50,0.855,1.213,0.838,1.521,1.058,0.472,0.821,0.782,��,7.2,��
